Aiken, SC (29803)

1:04 PM EST on February 10, 2016 (GMT -0500)
100 Akre Wood | | Change Station
CLOSE
Current Station
Personal Weather Station
Location: Aiken, SC
Elevation: 449 ft
Nearby Weather Stations
Active Advisory: Lake Wind Advisory Active Notice: Public Information Statement

Elev 449 ft 33.53 °N, 81.73 °W | Updated 4 minutes ago

Clear
Clear
34.9 °F
Feels Like 29 °F
N
6.9
Wind Variable Wind from North
Gusts 9.8 mph

Today
High -- | Low -- °F
--% Chance of Precip.
Yesterday
High -- | Low -- °F
Precip. -- in
Pressure 30.05 in
Visibility -9999.0 miles
Clouds Clear
Windchill 29 °F
Dew Point 9 °F
Humidity 34%
Rainfall 0.00 in
Snow Depth Not available.
7:16 AM 6:06 PM
Waxing Crescent, 6% visible
METAR KAIK 101755Z AUTO 27018G26KT CLR 01/M12 A3005 RMK AO2 PWINO
Pressure 30.05 in
Visibility -9999.0 miles
Clouds Clear
Windchill 29 °F
Dew Point 9 °F
Humidity 34%
Rainfall 0.00 in
Snow Depth Not available.
7:16 AM 6:06 PM
Waxing Crescent, 6% visible
METAR KAIK 101755Z AUTO 27018G26KT CLR 01/M12 A3005 RMK AO2 PWINO

10-Day Weather Forecast

Almanac

Astronomy

Feb. 10, 2016 Rise Set
Actual Time
Civil Twilight
Nautical Twilight
Astronomical Twilight
Moon
Length of Visible Light
Length of Day
Tomorrow will be .
, % of the Moon is Illuminated

Today's Extremes

State Highs State Lows

Community

WunderPhotos

Upload Photos

1,891,904 photos uploaded!

WunderBlog® & News

Nearby

Air Quality

  Air Quality AQ Index Pollutant
Not available.

Snow Depth

Station Depth Elevation

Earthquake Activity

City Distance Mag. Time & Date
Minimum magnitude displayed is 2.5.

Coastal Water Temperatures

Place Temperature

Stations

Nearby Weather Stations

Station Location Temp. Windchill Dew Point Humidity Wind Precip. Elev Updated Type
                   

Watches & Warnings

Lake Wind Advisory
Issued: 3:47 AM EST Feb. 10, 2016 – National Weather Service

... Lake Wind Advisory remains in effect until 11 PM EST this
evening...

* timing... through this evening.

* Winds... west 20 to 30 knots.

* Impacts... strong winds and rough chop will create hazardous
conditions for small craft and personal watercraft.

Precautionary/preparedness actions...

A lake Wind Advisory indicates that winds will cause rough chop
on area lakes. Small boats will be especially prone to capsizing.